Regional Weather Roundup
Issued by NWS

Home | Current Version | Previous Version | Text Only | Print | Product List | Glossary Off
Versions: 1 2 3 4 5 6 7 8 9 10 11 12 13 14 15 16 17 18 19 20 21 22 23 24 25 26 27 28 29 30 31 32 33 34 35 36 37 38 39 40 41 42 43 44 45 46 47 48 49 50

000
ASUS43 KLSX 291559
RWRMO

WEATHER SUMMARY FOR MISSOURI
NATIONAL WEATHER SERVICE SPRINGFIELD MO
1100 AM CDT THU JUN 29 2017

NOTE: "FAIR" INDICATES FEW OR NO CLOUDS BELOW 12,000 FEET WITH NO
       SIGNIFICANT WEATHER AND/OR OBSTRUCTIONS TO VISIBILITY.
       CURRENT SKY AND/OR WEATHER CONDITIONS ARE NOT AVAILABLE FOR
       CHILLICOTHE AND FARMINGTON.

MOZ001>031-035>038-043-044-053-054-291700-
...NORTHERN AND WESTERN MISSOURI...

CITY           SKY/WX    TMP DP  RH WIND       PRES   REMARKS
KANSAS CTY INT LGT RAIN  66  64  94 SE22G28   29.82F
KANSAS C DTWN  LGT RAIN  68  67  96 E10G23    29.76F
LEE`S SUMMIT   LGT RAIN  67  67 100 SE12      29.89F
ST JOSEPH      CLOUDY    68  67  96 SW12G21   29.82F
CHILLICOTHE      N/A     67  67 100 SE6       29.92F

$$
MOZ066>068-077>081-088>096-101>105-291700-
...SOUTHWEST MISSOURI...

CITY           SKY/WX    TMP DP  RH WIND       PRES   REMARKS
SPRINGFIELD    MOSUNNY   81  70  69 S10       29.93S
JOPLIN         MOSUNNY   84  72  67 SW17G24   29.90S
BRANSON        PTSUNNY   81  68  65 SE6       29.96S

$$
MOZ032>034-039>042-045>050-055>058-069>072-291700-
...CENTRAL MISSOURI...

CITY           SKY/WX    TMP DP  RH WIND       PRES   REMARKS
COLUMBIA       CLOUDY    74  69  85 S6        29.93F
JEFFERSON CITY CLOUDY    78  68  71 S8        29.92F
ROLLA          CLOUDY    80  69  69 SW12      29.94F
SEDALIA        LGT RAIN  77  73  87 S8        29.91F
WARRENSBURG    CLOUDY    70  68  94 NW10      29.94R
OSAGE BEACH    CLOUDY    82  71  69 W6        29.94S

$$
MOZ051-052-059>065-291700-
...EAST CENTRAL MISSOURI...

CITY           SKY/WX    TMP DP  RH WIND       PRES   REMARKS
ST LOUIS INTL  NOT AVBL
SPIRIT OF STL  PTSUNNY   84  69  60 SW14G23   29.90S
ST CHARLES     MOSUNNY   84  68  58 SW23G30   29.88S

$$
MOZ072>076-082>087-097>100-106>115-291700-
...SOUTH CENTRAL AND SOUTHEAST MISSOURI...

CITY           SKY/WX    TMP DP  RH WIND       PRES   REMARKS
CAPE GIRARDEAU SUNNY     82  70  66 SW14      29.98S
FARMINGTON     PTSUNNY   83  70  64 SW10      29.97F
POPLAR BLUFF   PTSUNNY   80  72  76 SW10      29.98F
WEST PLAINS    PTSUNNY   78  68  71 SW9       29.99S

$$



USA.gov is the U.S. government's official web portal to all federal, state and local government web resources and services.